Temp
19 19 20 19 18 16 16 16 13 12 10 10 10 11 10 10 11 11 11 11 11 12 12 12 12 12 12 11 11 11 11 11 11 11 10 10 10 11 11 11 11 10 10
17 17 18 17 18 18 15 16 13 10 10 10 10 10 11 10 11 11 11 11 11 11 12 12 12 11 11 11 11 11 10 11 11 11 10 10 10 10 10 11 11 11 10
17 16 17 17 17 18 16 16 13 11 11 11 9 9 10 10 10 11 11 11 11 11 12 12 12 11 11 11 11 11 11 11 10 11 11 10 10 10 10 10 11 11 10
17 17 16 17 17 17 15 16 13 11 11 10 10 10 10 10 10 11 11 11 10 11 11 11 11 12 12 11 11 11 11 11 11 11 11 12 11 11 10 12 11 10 10
19 17 18 18 17 16 15 15 13 11 10 11 10 9 10 10 10 10 10 10 10 11 11 11 11 11 11 11 11 11 11 11 11 11 11 12 11 11 12 12 12 11 11
17 16 16 17 16 15 14 15 13 12 10 11 10 9 9 10 10 10 10 10 10 10 10 10 10 10 10 10 11 11 11 11 11 12 12 11 11 11 12 12 12 12 11
15 15 16 16 15 14 14 14 12 12 9 10 10 10 9 9 10 10 10 10 10 9 10 10 10 10 10 10 10 10 10 11 11 11 11 11 11 11 12 11 11 11 11
14 15 17 16 15 15 15 14 12 10 9 10 10 10 10 9 9 10 10 10 9 9 9 10 10 9 9 8 9 9 9 10 11 10 11 11 11 10 11 11 11 10 10
14 14 16 16 16 16 16 15 12 11 9 9 10 10 10 10 9 9 10 10 9 9 9 8 8 8 9 8 8 8 9 9 10 10 10 11 11 10 11 11 11 10 10
14 15 17 17 17 16 15 15 14 12 10 9 10 10 9 9 10 9 9 9 9 9 8 8 9 9 9 9 9 9 9 9 10 10 10 10 11 11 11 10 10 10 10
16 13 17 17 17 16 15 15 14 13 9 9 9 9 10 10 9 9 9 9 9 8 10 10 10 9 9 9 8 8 9 9 10 10 10 10 10 10 10 10 10 10 10
17 17 14 15 17 16 15 15 14 14 14 9 9 9 10 10 9 9 10 9 9 9 10 10 10 9 9 9 8 9 9 9 9 9 10 10 10 10 10 10 10 9 9
14 15 14 12 13 17 16 15 15 15 14 12 9 9 9 9 9 9 10 10 10 10 10 10 10 9 9 9 9 9 9 10 10 9 10 9 9 9 10 10 9 9 9
12 12 13 13 12 11 13 17 16 16 16 13 11 9 9 9 9 9 10 9 10 10 10 10 10 10 10 9 9 9 9 9 9 9 9 9 9 9 9 9 9 9 8
11 11 12 13 13 12 13 11 13 16 15 14 13 12 9 9 9 9 10 10 10 10 10 10 10 9 9 9 9 9 9 9 9 10 9 9 9 9 9 9 9 8 8
10 10 10 12 12 11 11 12 13 11 13 14 14 14 13 11 9 9 9 9 9 9 10 9 9 9 9 9 9 9 9 9 9 9 8 9 9 9 9 8 7 6 5
10 8 10 11 11 12 13 12 12 13 12 10 12 13 13 13 12 11 9 9 9 9 9 9 10 10 9 10 10 9 8 8 9 9 9 9 8 8 6 5 3 1 2
9 9 9 10 12 12 14 14 12 12 12 12 11 11 12 13 12 11 10 9 9 9 9 9 10 9 10 9 9 9 9 9 9 8 8 7 5 3 1 0 0 0 -1
8 8 9 9 10 11 12 14 15 16 15 15 13 12 11 12 12 12 11 10 9 9 9 9 9 9 9 9 9 9 8 8 8 7 4 1 0 -0 0 -1 -1 -2 -3
8 8 8 8 9 10 11 12 13 15 11 11 11 11 11 11 11 11 11 10 9 9 9 9 9 9 9 9 8 8 8 7 4 -0 -1 -1 -2 -3 -4 -3 -3 -4 -5
8 8 8 8 8 8 8 9 10 12 12 10 10 10 11 10 10 11 10 10 10 10 9 9 8 7 6 6 5 5 6 5 1 -2 -3 -4 -5 -4 -4 -5 -5 -6 -7
7 8 8 7 8 7 6 6 7 9 10 9 9 10 10 10 10 10 10 10 10 9 8 6 5 3 2 1 0 1 0 -2 -3 -3 -3 -4 -3 -3 -7 -7 -6 -6 -7
4 4 3 4 5 6 4 4 4 5 6 7 8 8 9 9 9 9 9 8 6 5 4 2 -1 -2 -3 -4 -4 -3 -3 -3 -3 -5 -7 -7 -6 -7 -5 -8 -8 -9 -9
3 2 -0 -0 1 2 2 2 3 4 5 5 6 6 6 5 5 5 5 5 2 1 -0 -3 -4 -5 -6 -5 -4 -4 -4 -4 -4 -5 -7 -8 -10 -9 -10 -10 -10 -10 -10
4 1 -1 -1 -1 0 0 1 1 1 3 4 4 2 3 3 1 0 -1 1 -2 -2 -5 -5 -4 -4 -5 -5 -5 -5 -5 -6 -7 -9 -10 -11 -11 -11 -11 -11 -11 -12 -12
2 1 -2 -2 -2 -2 -1 -1 -1 -1 0 1 1 0 -2 -1 -2 -3 -4 -4 -4 -4 -3 -3 -3 -4 -4 -6 -6 -6 -7 -9 -10 -10 -10 -10 -11 -11 -12 -12 -12 -12 -13
Height
1414 1418 1421 1426 1429 1431 1432 1431 1433 1436 1439 1442 1444 1446 1447 1449 1450 1448 1453 1459 1462 1474 1480 1488 1495 1502 1506 1515 1524 1528 1532 1537 1541 1545 1549 1553 1557 1558 1559 1562 1564 1566 1567
1414 1415 1418 1421 1424 1426 1428 1428 1431 1433 1436 1439 1442 1444 1447 1449 1450 1447 1452 1458 1463 1471 1480 1488 1494 1501 1504 1513 1522 1526 1529 1535 1539 1542 1547 1551 1555 1556 1558 1558 1561 1563 1565
1405 1409 1412 1415 1420 1422 1423 1425 1427 1430 1434 1437 1439 1442 1445 1448 1450 1450 1448 1457 1464 1472 1480 1488 1493 1499 1504 1511 1519 1524 1526 1530 1537 1542 1542 1547 1549 1552 1555 1556 1558 1559 1561
1398 1403 1407 1410 1414 1418 1420 1423 1424 1428 1432 1434 1437 1439 1441 1444 1448 1451 1450 1458 1465 1473 1481 1487 1494 1499 1505 1510 1517 1522 1525 1528 1532 1538 1541 1543 1545 1549 1551 1553 1554 1556 1557
1392 1394 1399 1404 1411 1415 1417 1420 1422 1425 1430 1432 1434 1436 1439 1443 1447 1451 1456 1460 1467 1472 1479 1487 1493 1498 1504 1510 1515 1519 1523 1528 1530 1533 1538 1542 1543 1545 1546 1547 1550 1553 1554
1389 1394 1397 1403 1408 1412 1415 1416 1419 1423 1428 1430 1433 1434 1437 1440 1446 1450 1454 1459 1465 1470 1476 1481 1486 1494 1499 1505 1510 1515 1522 1526 1529 1532 1535 1540 1541 1541 1544 1545 1546 1548 1551
1379 1384 1390 1397 1403 1406 1410 1413 1416 1419 1425 1428 1431 1434 1437 1441 1444 1448 1453 1457 1462 1466 1473 1479 1483 1490 1495 1501 1508 1511 1518 1524 1527 1531 1534 1537 1538 1541 1542 1542 1543 1543 1545
1373 1377 1384 1392 1398 1401 1405 1409 1413 1417 1423 1427 1430 1433 1436 1440 1444 1448 1452 1456 1458 1463 1470 1476 1481 1484 1493 1497 1503 1508 1513 1520 1523 1528 1530 1533 1535 1538 1538 1538 1540 1539 1539
1375 1378 1383 1391 1394 1397 1401 1405 1409 1414 1421 1425 1429 1432 1436 1438 1442 1447 1452 1456 1459 1462 1466 1473 1480 1486 1493 1497 1501 1506 1512 1516 1520 1523 1526 1528 1530 1533 1534 1534 1534 1534 1532
1380 1378 1381 1386 1391 1395 1398 1403 1407 1410 1417 1423 1426 1430 1434 1438 1441 1445 1449 1454 1457 1460 1464 1473 1480 1485 1490 1495 1502 1506 1509 1513 1516 1519 1521 1523 1525 1528 1528 1528 1528 1527 1526
1391 1390 1378 1383 1388 1393 1396 1400 1404 1407 1412 1418 1423 1427 1431 1435 1439 1443 1447 1451 1456 1460 1466 1471 1476 1482 1488 1493 1497 1501 1506 1509 1511 1514 1516 1517 1519 1521 1521 1522 1521 1519 1518
1384 1382 1386 1384 1384 1390 1394 1397 1401 1404 1408 1413 1419 1423 1428 1432 1435 1439 1443 1448 1452 1458 1463 1469 1473 1479 1484 1489 1493 1496 1500 1503 1505 1508 1510 1511 1513 1513 1514 1514 1512 1511 1510
1391 1384 1387 1392 1390 1386 1391 1395 1397 1399 1405 1409 1414 1418 1423 1427 1431 1435 1440 1445 1449 1454 1459 1464 1469 1475 1479 1484 1488 1492 1495 1498 1500 1502 1504 1505 1506 1506 1505 1504 1502 1501 1500
1400 1393 1391 1393 1398 1399 1395 1390 1392 1395 1399 1404 1408 1412 1416 1422 1427 1432 1437 1441 1446 1451 1455 1459 1465 1469 1473 1477 1482 1486 1488 1492 1494 1496 1496 1497 1496 1496 1495 1495 1494 1492 1490
1404 1398 1394 1390 1392 1395 1396 1400 1395 1392 1396 1400 1402 1405 1411 1417 1422 1427 1432 1438 1443 1448 1453 1456 1460 1464 1467 1471 1475 1479 1482 1486 1486 1487 1488 1488 1487 1487 1487 1485 1483 1481 1479
1408 1404 1399 1398 1395 1393 1394 1396 1397 1399 1397 1397 1398 1400 1404 1409 1415 1421 1427 1432 1437 1442 1447 1452 1456 1459 1461 1463 1468 1472 1475 1478 1479 1479 1479 1479 1478 1477 1477 1476 1474 1473 1472
1407 1412 1406 1401 1399 1396 1394 1391 1390 1395 1398 1401 1398 1396 1399 1402 1408 1414 1420 1425 1431 1437 1442 1446 1449 1451 1454 1457 1461 1465 1468 1470 1471 1471 1471 1471 1470 1469 1468 1466 1466 1468 1465
1400 1401 1405 1399 1394 1390 1388 1385 1385 1389 1392 1394 1395 1398 1395 1397 1404 1409 1415 1421 1426 1431 1436 1440 1443 1445 1447 1450 1454 1458 1461 1462 1462 1463 1462 1462 1460 1460 1460 1463 1463 1464 1466
1397 1395 1394 1394 1393 1390 1386 1385 1385 1384 1381 1382 1385 1391 1394 1397 1399 1404 1410 1414 1419 1426 1430 1434 1437 1440 1442 1443 1447 1452 1454 1456 1456 1456 1455 1456 1456 1456 1454 1458 1458 1460 1461
1396 1394 1392 1389 1386 1385 1384 1382 1380 1377 1377 1379 1385 1387 1390 1394 1398 1400 1404 1409 1415 1420 1425 1428 1432 1434 1435 1437 1438 1440 1443 1444 1444 1448 1452 1454 1454 1453 1455 1453 1458 1463 1462
1394 1390 1387 1385 1382 1380 1380 1379 1378 1377 1376 1376 1379 1382 1385 1388 1393 1398 1403 1406 1410 1413 1416 1420 1423 1426 1429 1429 1431 1432 1433 1434 1436 1441 1445 1449 1459 1460 1453 1457 1459 1460 1464
1390 1388 1385 1382 1378 1375 1373 1373 1373 1374 1372 1373 1374 1376 1379 1383 1387 1393 1398 1401 1402 1406 1410 1413 1416 1419 1422 1425 1428 1428 1428 1432 1439 1441 1446 1453 1447 1445 1463 1459 1457 1459 1459
1393 1390 1387 1385 1381 1375 1371 1371 1370 1371 1370 1370 1371 1372 1373 1377 1380 1385 1389 1394 1397 1401 1404 1410 1414 1415 1421 1427 1433 1436 1435 1434 1442 1447 1449 1451 1449 1447 1445 1460 1462 1460 1457
1390 1388 1386 1384 1380 1376 1374 1373 1371 1370 1369 1369 1369 1370 1372 1374 1377 1381 1385 1388 1393 1396 1400 1405 1411 1416 1422 1429 1432 1436 1438 1440 1445 1450 1449 1450 1456 1453 1455 1455 1459 1457 1455
1389 1386 1385 1384 1382 1379 1376 1374 1372 1371 1369 1368 1368 1370 1370 1372 1375 1380 1383 1384 1392 1397 1399 1405 1412 1417 1433 1425 1437 1437 1439 1440 1445 1452 1451 1454 1457 1457 1458 1457 1455 1457 1454
1389 1387 1387 1386 1383 1379 1376 1375 1373 1373 1372 1370 1369 1371 1372 1374 1377 1380 1387 1399 1399 1408 1416 1419 1426 1423 1427 1432 1438 1442 1443 1443 1446 1451 1457 1453 1459 1461 1460 1455 1454 1455 1456
Wind_Speed
31 38 34 29 24 19 15 11 17 17 18 20 19 20 18 17 16 29 39 33 43 45 46 47 48 47 45 41 38 34 32 27 32 28 20 16 14 12 11 10 11 12 11
30 37 34 31 26 20 16 14 18 17 18 19 21 23 21 17 17 31 41 44 48 42 44 48 49 48 43 40 37 34 33 30 30 32 26 20 17 18 17 12 14 15 15
39 42 39 35 27 23 18 17 19 16 15 15 15 18 23 22 20 28 48 47 46 42 45 48 48 47 43 39 40 34 35 36 32 30 25 12 11 23 22 20 18 18 19
35 46 42 36 31 24 20 19 19 16 12 12 16 18 23 28 28 27 47 47 45 42 40 48 44 42 44 40 41 33 35 36 36 34 26 16 10 14 13 18 23 23 22
38 49 47 39 30 24 21 19 19 16 12 11 11 16 20 27 29 34 37 40 42 42 42 46 40 41 40 39 42 37 36 35 34 34 32 19 15 13 9 11 14 16 16
36 43 45 36 30 25 23 19 20 17 14 12 11 15 20 26 30 38 44 44 45 48 47 46 44 44 45 47 40 36 34 34 33 29 26 29 20 15 16 15 18 20 18
38 46 44 40 34 29 26 22 21 20 18 16 14 14 18 20 26 38 41 47 45 47 47 45 47 47 44 36 36 35 32 35 33 31 29 25 18 18 19 16 17 20 21
39 49 45 41 35 29 26 24 23 21 22 22 19 16 13 17 22 28 34 44 51 48 46 48 44 42 41 44 43 36 36 34 30 26 23 20 20 24 22 23 23 26 28
33 44 42 39 34 29 27 26 24 23 24 24 23 21 19 19 19 25 30 38 48 50 47 43 40 36 31 31 32 36 39 34 30 27 24 27 27 26 27 28 29 29 32
23 38 42 38 32 28 26 26 24 24 27 26 26 25 24 23 22 26 33 37 46 52 47 40 39 40 39 39 36 40 35 31 32 31 31 30 32 32 30 31 31 31 35
12 18 40 37 32 29 28 27 25 26 28 30 29 27 26 25 25 28 32 35 37 34 39 48 47 44 41 38 33 38 40 37 33 33 31 31 31 33 32 33 36 38 40
27 23 27 37 35 31 29 29 27 27 27 31 33 32 28 30 29 28 28 32 33 37 38 39 42 43 37 38 39 40 39 36 33 31 31 36 34 34 36 39 39 40 39
23 7 16 22 31 34 31 30 29 29 27 30 35 34 33 34 34 32 32 33 33 33 34 36 38 44 38 40 40 40 40 42 43 40 37 35 37 40 40 41 40 40 42
24 29 7 5 12 22 31 31 31 30 30 31 33 38 38 36 37 33 32 35 35 34 35 36 37 40 38 39 42 41 38 38 40 42 42 43 45 44 42 41 40 41 41
21 24 29 4 14 15 30 32 33 31 34 34 34 35 38 37 37 37 34 34 35 35 34 35 35 36 37 40 41 39 37 36 38 42 46 46 42 39 39 40 42 42 38
15 20 22 24 13 17 16 30 34 34 34 36 37 35 33 35 36 38 37 36 36 36 33 32 32 30 32 37 37 39 38 37 37 40 42 40 39 41 41 44 41 30 22
17 12 20 20 18 15 13 8 25 34 37 39 38 37 35 34 35 33 37 39 39 37 36 33 32 33 34 33 32 33 35 36 38 39 41 41 38 38 30 23 13 7 8
19 20 19 20 22 20 16 13 9 25 33 40 40 40 37 35 35 33 34 34 38 41 41 38 37 37 38 38 37 36 36 38 36 35 32 33 28 20 13 9 6 5 3
18 21 22 22 21 21 18 13 10 17 30 36 46 43 40 36 35 33 33 37 36 38 40 41 38 38 38 38 36 35 35 37 36 33 28 21 17 15 12 10 6 5 5
17 20 23 24 23 22 22 18 13 13 23 34 37 40 37 37 35 36 36 35 35 37 41 41 41 40 39 40 40 40 38 37 31 24 21 19 19 16 10 7 5 2 4
19 21 23 29 26 23 21 18 12 9 16 23 28 36 37 34 36 37 36 37 37 42 43 41 37 32 31 32 29 30 31 32 31 28 24 19 10 7 6 6 5 2 3
19 19 24 27 29 22 20 18 13 9 10 16 20 30 34 35 35 37 39 38 40 39 37 35 31 28 27 24 24 27 28 29 26 23 17 11 8 6 2 3 4 4 2
15 17 19 22 23 19 17 16 13 7 7 9 14 23 30 34 36 38 41 38 36 36 36 33 32 31 26 25 24 23 23 21 19 17 16 12 5 5 9 4 5 5 6
20 20 19 21 20 16 16 13 9 7 8 9 12 17 22 26 30 34 36 38 37 38 38 36 36 35 34 30 25 20 18 17 15 11 10 9 7 7 6 6 6 7 8
20 21 20 18 18 18 16 13 8 5 10 14 17 21 25 29 32 33 33 37 34 35 36 37 36 33 26 27 21 19 17 15 12 13 14 10 6 5 6 6 7 7 8
19 19 17 15 15 16 16 13 7 5 11 17 20 23 27 29 31 32 32 22 27 29 29 29 25 28 24 21 17 12 12 14 12 9 9 10 7 5 5 7 8 8 8
Wind_Direction
197 193 200 205 209 217 222 232 197 196 197 198 204 208 201 204 187 196 191 194 188 185 185 181 177 177 175 178 179 177 178 178 179 177 173 181 206 214 212 219 232 232 229
191 190 197 202 208 222 216 209 196 196 196 203 209 212 209 207 207 178 185 179 177 185 188 183 179 179 176 179 180 182 175 174 179 178 171 178 198 214 224 231 241 248 255
195 192 197 201 205 218 209 204 194 193 199 202 205 214 209 208 195 176 173 180 179 184 190 186 182 182 183 180 183 186 182 176 179 183 175 164 201 210 217 231 244 249 255
204 197 198 200 207 214 201 200 192 200 202 196 193 194 203 203 200 185 169 176 179 182 191 188 185 184 188 186 188 191 188 184 181 188 190 191 187 184 200 218 237 244 251
207 199 203 204 202 206 198 197 192 197 198 193 196 188 200 202 204 197 184 178 179 181 182 188 190 192 188 193 191 192 193 192 192 194 202 220 197 202 195 191 217 230 241
215 200 199 196 199 196 197 196 187 193 196 196 194 190 198 201 200 200 192 188 185 186 188 188 190 196 194 190 190 189 195 201 202 200 211 220 221 220 232 240 244 255 261
195 193 193 194 195 193 195 197 191 192 195 196 197 190 195 196 200 203 204 192 193 195 196 196 195 198 196 195 203 193 193 206 211 212 224 227 238 253 257 255 258 263 265
183 192 191 193 193 192 194 199 195 194 197 196 200 199 198 202 202 203 206 206 202 187 191 194 198 193 205 203 201 206 197 214 212 220 226 235 238 250 258 267 263 266 269
185 189 189 194 193 196 193 200 198 195 203 201 203 204 203 208 201 210 212 210 202 198 191 186 190 195 201 208 207 200 210 211 218 227 236 243 257 264 262 265 267 267 269
186 190 192 194 196 200 195 199 201 201 200 206 205 210 210 213 214 213 213 208 211 203 194 193 206 210 213 217 221 211 216 227 228 233 243 252 252 261 264 265 266 269 270
248 223 197 198 197 197 198 201 200 202 200 204 205 210 211 214 219 218 219 219 219 203 205 209 212 218 221 222 211 218 225 233 236 242 248 250 254 262 266 269 274 273 274
347 231 221 203 198 198 200 204 204 204 205 204 206 212 211 212 217 220 220 220 216 215 220 221 220 215 219 214 218 223 225 234 237 251 259 256 260 264 271 278 277 277 277
32 67 193 216 210 201 203 206 209 209 205 204 206 210 214 215 219 218 217 219 221 222 224 225 222 217 227 224 225 230 236 245 252 261 260 259 266 273 273 276 277 277 276
31 46 117 171 244 236 218 210 212 213 211 207 209 208 214 216 219 219 218 218 219 223 224 227 227 229 234 233 231 237 243 249 251 252 254 261 267 269 271 272 274 274 273
26 28 33 78 0 281 249 236 221 217 215 211 212 214 213 215 217 220 218 217 218 222 226 230 233 236 239 238 239 242 247 252 250 250 253 261 264 267 269 269 269 266 263
50 20 31 42 22 24 248 247 240 234 224 220 219 215 214 220 219 220 221 221 222 223 223 228 232 235 238 238 241 245 246 246 249 253 255 257 261 267 269 269 268 265 261
40 72 26 14 14 23 13 290 242 241 236 236 226 222 217 218 222 222 220 223 224 223 226 229 230 237 241 240 238 240 244 248 251 250 250 251 253 256 251 255 241 211 206
20 21 21 16 357 356 1 19 240 243 241 239 238 235 225 221 222 223 223 222 225 225 227 229 232 233 237 241 242 240 240 242 240 240 238 238 227 219 213 200 179 162 141
10 8 4 3 358 349 341 337 317 269 244 248 237 236 236 227 222 223 223 222 224 221 226 228 231 233 235 240 241 239 239 241 241 233 220 207 192 181 176 175 160 138 88
3 360 1 352 346 349 341 330 330 314 226 230 230 232 234 232 228 225 222 220 222 223 226 229 230 231 232 237 241 240 237 222 200 178 166 168 169 156 137 130 117 85 65
358 355 357 355 345 336 339 330 326 317 234 224 219 223 226 227 227 226 225 223 222 221 220 218 214 211 213 210 207 204 211 202 182 167 154 142 116 104 102 86 84 102 194
1 0 355 351 346 332 337 333 324 312 280 251 214 212 219 222 225 223 221 217 213 209 203 198 188 182 184 188 185 181 172 157 152 139 127 110 116 110 55 128 149 127 113
355 354 356 353 349 332 338 335 331 310 293 271 231 201 200 206 210 208 206 197 192 185 178 174 164 156 150 140 139 131 128 127 129 122 119 131 145 138 133 97 62 53 40
358 360 6 359 358 350 338 334 322 296 219 208 199 195 192 183 183 186 182 180 175 172 166 156 148 137 131 128 126 122 124 121 125 127 136 139 131 108 99 81 57 39 33
350 359 6 3 358 352 345 332 321 275 211 186 178 170 173 169 165 165 166 170 168 170 152 143 130 122 122 125 129 132 129 123 129 147 146 140 132 110 104 79 60 49 45
357 359 6 0 358 353 346 336 310 241 199 173 165 165 160 161 160 152 137 132 136 132 130 129 132 130 133 129 129 126 139 138 134 146 158 137 140 129 96 76 64 51 38